Time,TemperatureF,DewpointF,PressureIn,WindDirection,WindDirectionDegrees,WindSpeedMPH,WindSpeedGustMPH,Humidity,HourlyPrecipIn,Conditions,Clouds,dailyrainin,SoftwareType,DateUTC
2013-02-21 00:12:00,21.3,6.7,28.79,North,0,57.2,57.2,53,0.00,,,0.00,WUHU216HW,2013-02-21 06:12:00,
2013-02-21 00:13:00,21.3,6.7,28.79,North,0,57.2,57.2,53,0.00,,,0.00,WUHU216HW,2013-02-21 06:13:00,
2013-02-21 00:18:00,21.3,6.7,28.79,SE,135,0.0,57.2,53,0.00,,,0.00,WUHU216HW,2013-02-21 06:18:00,
2013-02-21 00:23:00,21.3,6.7,28.79,SE,135,0.0,0.0,53,0.00,,,0.00,WUHU216HW,2013-02-21 06:23:00,
2013-02-21 00:28:00,21.3,6.7,28.80,SE,135,0.0,0.0,53,0.00,,,0.00,WUHU216HW,2013-02-21 06:28:00,
2013-02-21 00:33:00,21.3,6.7,28.80,SE,135,0.0,0.0,53,0.00,,,0.00,WUHU216HW,2013-02-21 06:33:00,
2013-02-21 00:38:00,21.3,6.7,28.81,SE,135,0.0,0.0,53,0.00,,,0.00,WUHU216HW,2013-02-21 06:38:00,
2013-02-21 00:44:00,21.3,6.7,28.81,SE,135,0.0,0.0,53,0.00,,,0.00,WUHU216HW,2013-02-21 06:44:00,
2013-02-21 00:49:00,21.3,6.7,28.81,SE,135,0.0,0.0,53,0.00,,,0.00,WUHU216HW,2013-02-21 06:49:00,
2013-02-21 00:54:00,21.0,6.4,28.81,SE,135,0.0,0.0,53,0.00,,,0.00,WUHU216HW,2013-02-21 06:54:00,
2013-02-21 00:59:00,21.0,6.8,28.82,SE,135,0.0,0.0,54,0.00,,,0.00,WUHU216HW,2013-02-21 06:59:00,
2013-02-21 01:04:00,21.0,6.8,28.82,SE,135,0.0,0.0,54,0.00,,,0.00,WUHU216HW,2013-02-21 07:04:00,
2013-02-21 01:09:00,21.0,6.8,28.82,SE,135,0.0,0.0,54,0.00,,,0.00,WUHU216HW,2013-02-21 07:09:00,
2013-02-21 02:48:00,20.4,7.1,28.76,East,90,0.0,0.0,56,0.00,,,0.00,WUHU216HW,2013-02-21 08:48:00,
2013-02-21 02:53:00,20.4,7.1,28.75,East,90,0.0,0.0,56,0.00,,,0.00,WUHU216HW,2013-02-21 08:53:00,
2013-02-21 02:58:00,20.4,7.1,28.76,East,90,0.0,0.0,56,0.00,,,0.00,WUHU216HW,2013-02-21 08:58:00,
2013-02-21 03:03:00,20.4,7.1,28.73,SE,135,0.0,0.0,56,0.00,,,0.00,WUHU216HW,2013-02-21 09:03:00,
2013-02-21 03:08:00,20.4,7.1,28.72,NNE,23,6.2,6.2,56,0.00,,,0.00,WUHU216HW,2013-02-21 09:08:00,
2013-02-21 03:14:00,20.4,7.1,28.71,NNE,23,6.2,6.2,56,0.00,,,0.00,WUHU216HW,2013-02-21 09:14:00,
2013-02-21 03:19:00,20.4,7.1,28.70,East,90,2.6,6.2,56,0.00,,,0.00,WUHU216HW,2013-02-21 09:19:00,
2013-02-21 03:24:00,20.4,7.1,28.70,East,90,2.6,2.6,56,0.00,,,0.00,WUHU216HW,2013-02-21 09:24:00,
2013-02-21 03:29:00,20.4,7.1,28.70,East,90,2.6,2.6,56,0.00,,,0.00,WUHU216HW,2013-02-21 09:29:00,
2013-02-21 03:34:00,20.4,7.1,28.70,East,90,2.6,2.6,56,0.00,,,0.00,WUHU216HW,2013-02-21 09:34:00,
2013-02-21 04:03:00,0.0,0.0,28.72,ESE,113,7.3,7.3,56,0.00,,,0.00,WUHU216HW,2013-02-21 10:03:00,
2013-02-21 04:08:00,0.0,0.0,28.72,SSE,158,6.7,7.3,56,0.00,,,0.00,WUHU216HW,2013-02-21 10:08:00,
2013-02-21 04:14:00,0.0,-12.0,28.72,SSE,158,6.7,7.3,56,0.00,,,0.00,WUHU216HW,2013-02-21 10:14:00,
2013-02-21 04:19:00,0.0,-11.6,28.71,SSE,158,6.7,6.7,57,0.00,,,0.00,WUHU216HW,2013-02-21 10:19:00,
2013-02-21 04:24:00,0.0,-11.6,28.71,SSE,158,6.7,6.7,57,0.00,,,0.00,WUHU216HW,2013-02-21 10:24:00,
2013-02-21 04:29:00,0.0,-11.6,28.70,SSE,158,6.7,6.7,57,0.00,,,0.00,WUHU216HW,2013-02-21 10:29:00,
2013-02-21 04:34:00,20.4,7.6,28.69,SSE,158,6.7,6.7,57,0.00,,,0.00,WUHU216HW,2013-02-21 10:34:00,
2013-02-21 05:31:00,0.0,0.0,28.69,ESE,113,0.0,0.0,58,0.00,,,0.00,WUHU216HW,2013-02-21 11:31:00,
2013-02-21 05:36:00,0.0,-11.3,28.69,ESE,113,0.0,0.0,58,0.00,,,0.00,WUHU216HW,2013-02-21 11:36:00,
2013-02-21 05:41:00,0.0,-11.3,28.69,ESE,113,0.0,0.0,58,0.00,,,0.00,WUHU216HW,2013-02-21 11:41:00,
2013-02-21 05:47:00,0.0,-11.3,28.70,ESE,113,0.0,0.0,58,0.00,,,0.00,WUHU216HW,2013-02-21 11:47:00,
2013-02-21 05:52:00,0.0,-11.3,28.70,ESE,113,0.0,0.0,58,0.00,,,0.00,WUHU216HW,2013-02-21 11:52:00,
2013-02-21 05:57:00,20.3,7.7,28.70,ESE,113,0.0,0.0,58,0.00,,,0.00,WUHU216HW,2013-02-21 11:57:00,
2013-02-21 11:56:00,22.6,13.2,28.59,NE,45,62.8,62.8,67,0.00,,,0.00,WUHU216HW,2013-02-21 17:56:00,
2013-02-21 12:01:00,22.4,13.1,28.59,NE,45,62.8,62.8,67,0.00,,,0.00,WUHU216HW,2013-02-21 18:01:00,
2013-02-21 12:07:00,22.4,13.1,28.59,NE,45,62.8,62.8,67,0.00,,,0.00,WUHU216HW,2013-02-21 18:07:00,
2013-02-21 12:12:00,22.4,13.1,28.59,NE,45,62.8,62.8,67,0.00,,,0.00,WUHU216HW,2013-02-21 18:12:00,
2013-02-21 20:23:00,0.0,0.0,28.46,NE,45,13.1,13.1,82,0.00,,,0.00,WUHU216HW,2013-02-22 02:23:00,
2013-02-21 20:29:00,0.0,0.0,28.46,NE,45,13.1,13.1,82,0.00,,,0.00,WUHU216HW,2013-02-22 02:29:00,
2013-02-21 20:34:00,0.0,0.0,28.46,NE,45,13.1,13.1,82,0.00,,,0.00,WUHU216HW,2013-02-22 02:34:00,
2013-02-21 20:39:00,0.0,0.0,28.46,NE,45,13.1,13.1,82,0.00,,,0.00,WUHU216HW,2013-02-22 02:39:00,
2013-02-21 20:44:00,0.0,0.0,28.45,NE,45,13.1,13.1,82,0.00,,,0.00,WUHU216HW,2013-02-22 02:44:00,
2013-02-21 20:49:00,0.0,0.0,28.45,NE,45,13.1,13.1,82,0.00,,,0.00,WUHU216HW,2013-02-22 02:49:00,
2013-02-21 20:54:00,0.0,0.0,28.45,NE,45,13.1,13.1,82,0.00,,,0.00,WUHU216HW,2013-02-22 02:54:00,
2013-02-21 20:59:00,0.0,0.0,28.45,NE,45,13.1,13.1,82,0.00,,,0.00,WUHU216HW,2013-02-22 02:59:00,
2013-02-21 21:04:00,0.0,0.0,28.45,NE,45,13.1,13.1,82,0.00,,,0.00,WUHU216HW,2013-02-22 03:04:00,
2013-02-21 21:40:00,0.0,0.0,28.44,NNE,23,9.6,9.6,82,0.00,,,0.00,WUHU216HW,2013-02-22 03:40:00,
2013-02-21 21:45:00,0.0,0.0,28.44,NNE,23,9.6,9.6,82,0.00,,,0.00,WUHU216HW,2013-02-22 03:45:00,
2013-02-21 21:50:00,0.0,0.0,28.44,NNE,23,9.6,9.6,83,0.00,,,0.00,WUHU216HW,2013-02-22 03:50:00,
2013-02-21 21:56:00,0.0,0.0,28.44,NNE,23,9.6,9.6,83,0.00,,,0.00,WUHU216HW,2013-02-22 03:56:00,
2013-02-21 22:01:00,0.0,0.0,28.44,NNE,23,9.6,9.6,83,0.00,,,0.00,WUHU216HW,2013-02-22 04:01:00,
2013-02-21 22:06:00,0.0,0.0,28.44,NNE,23,9.6,9.6,83,0.00,,,0.00,WUHU216HW,2013-02-22 04:06:00,
2013-02-21 22:11:00,0.0,0.0,28.44,NNE,23,9.6,9.6,83,0.00,,,0.00,WUHU216HW,2013-02-22 04:11:00,
2013-02-21 22:32:00,0.0,0.0,28.44,NNE,23,7.6,7.6,83,0.00,,,0.00,WUHU216HW,2013-02-22 04:32:00,
2013-02-21 22:37:00,0.0,-4.0,28.44,NNE,23,9.1,9.1,83,0.00,,,0.00,WUHU216HW,2013-02-22 04:37:00,
2013-02-21 22:43:00,0.0,-4.0,28.44,NNE,23,6.9,9.1,83,0.00,,,0.00,WUHU216HW,2013-02-22 04:43:00,
2013-02-21 22:48:00,0.0,-4.0,28.44,North,0,14.3,14.3,83,0.00,,,0.00,WUHU216HW,2013-02-22 04:48:00,
2013-02-21 22:53:00,0.0,-4.0,28.43,NNE,23,11.4,16.5,83,0.00,,,0.00,WUHU216HW,2013-02-22 04:53:00,
2013-02-21 22:58:00,20.8,16.4,28.43,NNE,23,12.7,16.5,83,0.00,,,0.00,WUHU216HW,2013-02-22 04:58:00,
2013-02-21 23:00:00,20.8,16.4,28.43,NNE,23,12.7,16.5,83,0.00,,,0.00,WUHU216HW,2013-02-22 05:00:00,
2013-02-21 23:01:00,20.8,16.4,28.43,NNE,23,12.7,12.7,83,0.00,,,0.00,WUHU216HW,2013-02-22 05:01:00,
2013-02-21 23:06:00,20.8,16.4,28.44,NNE,23,12.7,12.7,83,0.00,,,0.00,WUHU216HW,2013-02-22 05:06:00,
2013-02-21 23:11:00,20.8,16.4,28.43,NNE,23,12.7,12.7,83,0.00,,,0.00,WUHU216HW,2013-02-22 05:11:00,
2013-02-21 23:16:00,20.8,16.4,28.43,NNE,23,12.7,12.7,83,0.00,,,0.00,WUHU216HW,2013-02-22 05:16:00,
2013-02-21 23:21:00,20.8,16.4,28.43,NNE,23,12.7,12.7,83,0.00,,,0.00,WUHU216HW,2013-02-22 05:21:00,
2013-02-21 23:26:00,20.8,16.4,28.43,NNE,23,12.7,12.7,83,0.00,,,0.00,WUHU216HW,2013-02-22 05:26:00,
2013-02-21 23:31:00,20.8,16.4,28.43,NNE,23,12.7,12.7,83,0.00,,,0.00,WUHU216HW,2013-02-22 05:31:00,